Flag Weather past 2 weeks in Tashkent, Uzbekistan

Now
34 °F

Fog.


Feels Like: 31 °F
Forecast: 28 / 42 °F
Wind: 3 mph from West

Location: Tashkent

Current Time: Nov 29, 2014 at 3:12:07 PM

Latest Report: Nov 29, 2014 at 2:30 PM


Visibility: 2 mi

Pressure: 30.27 "Hg

Humidity: 87%

Dew point: 30 °F

Location of TashkentLocation

Historic Weather in Tashkent — Graph

°F

Tashkent temperature yesterday

Maximum temperature yesterday: 34 °F (at 4:00 PM)
Minimum temperature yesterday: 28 °F (at 3:30 AM)
Average temperature yesterday: 31 °F

Past Weeks' High & Low Weather Summary

 TemperatureHumidityPressure
High68 °F (Nov 17, 3:30 PM)100% (Nov 15, 3:30 AM)30.51 "Hg (Nov 15, 3:30 AM)
Low28 °F (Nov 28, 3:30 AM)23% (Nov 17, 3:30 PM)29.77 "Hg (Nov 23, 10:30 PM)
Average42 °F77%30.26 "Hg
* Reported Nov 14 1:00 PM — Nov 29 1:30 PM, Tashkent, Weather by CustomWeather, © 2014

Note: Actual official high and low records may vary slightly from our data, if they occured in-between our weather recording intervals... More about our weather records

Advertising

Tashkent weather history for previous 24 hours

 ConditionsComfort  
Time TempWeatherWind HumidityBarometerVisibility
1:30 PM
Nov 29
34 °FFog.3 mph87%30.27 "Hg2 mi
1:00 PM36 °FFog.6 mph81%30.27 "Hg2 mi
12:30 PM36 °FFog.2 mph81%30.27 "Hg2 mi
12:00 PM34 °FFog.3 mph87%30.27 "Hg2 mi
11:30 AM34 °FFog.3 mph87%30.30 "Hg1 mi
11:00 AM34 °FFog.2 mph87%30.30 "Hg2 mi
10:30 AM34 °FFog.5 mph87%30.30 "Hg2 mi
10:00 AM34 °FFog.3 mph87%30.30 "Hg2 mi
9:30 AM32 °FIce fog.5 mph93%30.30 "Hg2 mi
9:00 AM32 °FIce fog.5 mph93%30.30 "Hg2 mi
8:30 AM32 °FIce fog.6 mph93%30.30 "Hg2 mi
8:00 AM32 °FIce fog.6 mph100%30.30 "Hg2 mi
7:30 AM32 °FIce fog.8 mph100%30.30 "Hg2 mi
7:00 AM32 °FIce fog.8 mph100%30.30 "Hg1 mi
6:30 AM32 °FIce fog.6 mph100%30.27 "Hg2 mi
6:00 AM32 °FIce fog.6 mph100%30.27 "Hg1 mi
5:30 AM32 °FIce fog.2 mph100%30.27 "Hg1 mi
5:00 AM32 °FIce fog.5 mph100%30.27 "Hg1 mi
4:30 AM32 °FFog.3 mph100%30.27 "Hg1 mi
4:00 AM32 °FFog.3 mph100%30.30 "Hg1 mi
3:30 AM32 °FFog.3 mph100%30.30 "Hg1 mi
3:00 AM32 °FIce fog.6 mph100%30.30 "Hg1 mi
2:30 AM32 °FIce fog.3 mph100%30.30 "Hg1 mi
2:00 AM32 °FIce fog.3 mph100%30.30 "Hg1 mi
1:30 AM32 °FIce fog.5 mph100%30.33 "Hg1 mi
1:00 AM32 °FIce fog.3 mph100%30.33 "Hg1 mi
12:30 AM32 °FIce fog.3 mph100%30.33 "Hg1 mi
12:00 AM32 °FIce fog.5 mph100%30.33 "Hg1 mi
11:30 PM
Nov 28
32 °FIce fog.5 mph100%30.33 "Hg1 mi
11:00 PM32 °FIce fog.3 mph100%30.33 "Hg1 mi
10:30 PM32 °FIce fog.3 mph100%30.36 "Hg1 mi
10:00 PM32 °FIce fog.2 mph100%30.36 "Hg1 mi
9:30 PM32 °FIce fog.3 mph100%30.36 "Hg1 mi
9:00 PM32 °FIce fog.5 mph100%30.36 "Hg1 mi
8:30 PM32 °FIce fog.6 mph100%30.36 "Hg1 mi
8:00 PM34 °FFog.6 mph93%30.36 "Hg1 mi
7:30 PM32 °FIce fog.5 mph100%30.36 "Hg1 mi
7:00 PM34 °FFog.5 mph93%30.36 "Hg1 mi
6:30 PM34 °FFog.3 mph93%30.36 "Hg1 mi
6:00 PM34 °FFog.3 mph93%30.36 "Hg1 mi
5:30 PM32 °FIce fog.3 mph100%30.36 "Hg1 mi
5:00 PM32 °FIce fog.5 mph100%30.36 "Hg1 mi
4:30 PM32 °FIce fog.3 mph100%30.36 "Hg1 mi
4:00 PM34 °FFog.2 mph93%30.36 "Hg1 mi
3:30 PM32 °FIce fog.5 mph100%30.36 "Hg1 mi
3:00 PM32 °FIce fog.5 mph100%30.36 "Hg1 mi
Weather by CustomWeather, © 2014

See weather overviewHow to use our weather pages